Location: Arboucave
(43.6130°N, 0.4343°W)
Time: 12:26:07
(UTC+00:00)

Cosmos 1725 Rocket - Pass Details

Date: 17 November 2025
Orbit: 962 x 989 km, 82.9° (Epoch: 06 December)

Event Time Altitude Azimuth Distance (km) Brightness Sun altitude
Rises 16:59:07 0° 191° (S) 3,663 7.5 -4.9°
Reaches altitude 10° 17:01:37 10° 193° (SSW) 2,723 6.9 -5.3°
Maximum altitude 17:07:51 75° 279° (W) 1,020 4.3 -6.4°
Drops below altitude 10° 17:14:11 10° 5° (N) 2,756 6.1 -7.4°
Sets 17:16:44 0° 7° (N) 3,710 6.8 -7.9°
